Flight Track Log - Related Links

Times and Time Zones

All times are in EST time to prevent confusion due to time zone crossing. See the CSN438 flight status page for this flight to view local times or setup timezone preferences in your user account.

Time Position Orientation Groundspeed Altitude Reporting Facility
EST Latitude Longitude Course Direction KTS MPH feet Rate Location/Type
Fri 02:51:26 AM 33.9333 -118.4667 263° West 197 227 2,500  Level Southern California TRACON
Fri 02:52:16 AM 33.9269 -118.5264 263° West 203 234 3,800 1,473 Climbing Los Angeles Center
Fri 02:53:16 AM 33.9203 -118.6161 265° West 273 314 5,200 1,884 Climbing Los Angeles Center
Fri 02:54:17 AM 33.9142 -118.7167 266° West 300 345 7,600 2,628 Climbing Los Angeles Center
Fri 02:55:17 AM 33.9206 -118.8197 274° West 302 348 10,500 2,231 Climbing Los Angeles Center
Fri 02:56:18 AM 33.9547 -118.9253 291° West 341 392 12,100 2,331 Climbing Los Angeles Center
Fri 02:57:18 AM 34.0267 -119.0178 313° West 379 436 15,200 2,900 Climbing Los Angeles Center
Fri 02:58:18 AM 34.1158 -119.1006 322° Northwest 403 464 17,900 2,678 Climbing Los Angeles Center
Fri 02:59:19 AM 34.2086 -119.1878 322° Northwest 421 484 20,600 2,579 Climbing Los Angeles Center
Fri 03:00:19 AM 34.3042 -119.2772 322° Northwest 435 501 23,100 2,380 Climbing Los Angeles Center
Fri 03:01:20 AM 34.4014 -119.3683 322° Northwest 440 506 25,400 2,132 Climbing Los Angeles Center
Fri 03:02:20 AM 34.5011 -119.4642 322° Northwest 451 519 27,400 1,884 Climbing Los Angeles Center
Fri 03:03:21 AM 34.6044 -119.5611 322° Northwest 465 535 29,200 1,636 Climbing Los Angeles Center
Fri 03:04:21 AM 34.7031 -119.6561 322° Northwest 478 550 30,700 1,850 Climbing Los Angeles Center
Fri 03:05:21 AM 34.8086 -119.7561 322° Northwest 479 551 32,900 1,636 Climbing Los Angeles Center
Fri 03:06:22 AM 34.9117 -119.8553 322° Northwest 474 545 34,000 545 Climbing Los Angeles Center
Fri 03:07:22 AM 35.0133 -119.9553 321° Northwest 471 542 34,000  Level Los Angeles Center
Fri 03:08:22 AM 35.1167 -120.0542 322° Northwest 471 542 34,000  Level Los Angeles Center
Fri 03:09:23 AM 35.2250 -120.1600 321° Northwest 472 543 34,000 -50 Level Los Angeles Center
Fri 03:10:23 AM 35.3261 -120.2581 322° Northwest 468 539 33,900 -50 Descending Los Angeles Center
Fri 03:11:24 AM 35.4281 -120.3600 321° Northwest 470 541 33,900 50 Level Los Angeles Center
Fri 03:12:24 AM 35.5294 -120.4617 321° Northwest 473 544 34,000 52 Climbing Los Angeles Center
Fri 03:13:20 AM 35.6492 -120.5486 329° Northwest 480 552 34,000 -52 Level Oakland Center
Fri 03:14:20 AM 35.7644 -120.6292 330° Northwest 478 550 33,900 -50 Descending Oakland Center
Fri 03:15:20 AM 35.8786 -120.7139 329° Northwest 478 550 33,900 50 Level Oakland Center
Fri 03:16:20 AM 35.9914 -120.7978 329° Northwest 476 548 34,000  Climbing Oakland Center
Fri 03:17:20 AM 36.1039 -120.8819 329° Northwest 474 545 33,900  Descending Oakland Center
Fri 03:18:21 AM 36.2178 -120.9608 331° Northwest 471 542 34,000 50 Climbing Oakland Center
Fri 03:19:21 AM 36.3297 -121.0431 329° Northwest 469 540 34,000  Level Oakland Center
Fri 03:20:21 AM 36.4428 -121.1236 330° Northwest 469 540 34,000 -50 Level Oakland Center
Fri 03:21:21 AM 36.5556 -121.2064 329° Northwest 470 541 33,900  Descending Oakland Center
Fri 03:22:21 AM 36.6678 -121.2883 330° Northwest 469 540 34,000  Climbing Oakland Center
Fri 03:23:21 AM 36.7794 -121.3703 330° Northwest 466 536 33,900 -50 Descending Oakland Center
Fri 03:24:22 AM 36.8889 -121.4553 328° Northwest 461 531 33,900  Level Oakland Center
Fri 03:25:22 AM 37.0044 -121.5333 332° Northwest 473 544 33,900 50 Level Oakland Center
Fri 03:26:22 AM 37.1153 -121.6200 328° Northwest 466 536 34,000 50 Climbing Oakland Center
Fri 03:27:22 AM 37.2269 -121.7025 330° Northwest 465 535 34,000  Level Oakland Center
Fri 03:28:22 AM 37.3378 -121.7833 330° Northwest 461 531 34,000  Level Oakland Center
Fri 03:29:22 AM 37.4453 -121.8647 329° Northwest 461 531 34,000  Level Oakland Center
Fri 03:30:23 AM 37.5547 -121.9464 329° Northwest 460 529 34,000 -50 Level Oakland Center
Fri 03:31:23 AM 37.6644 -122.0292 329° Northwest 460 529 33,900 -50 Descending Oakland Center
Fri 03:32:23 AM 37.7736 -122.1122 329° Northwest 462 532 33,900  Level Oakland Center
Fri 03:33:23 AM 37.8836 -122.1939 330° Northwest 462 532 33,900 50 Level Oakland Center
Fri 03:34:23 AM 37.9925 -122.2764 329° Northwest 463 533 34,000 50 Climbing Oakland Center
Fri 03:35:23 AM 38.1011 -122.3597 329° Northwest 463 533 34,000 -50 Level Oakland Center
Fri 03:36:24 AM 38.2114 -122.4436 329° Northwest 467 537 33,900 -50 Descending Oakland Center
Fri 03:37:24 AM 38.3222 -122.5292 329° Northwest 470 541 33,900 50 Level Oakland Center
Fri 03:38:24 AM 38.4339 -122.6144 329° Northwest 471 542 34,000  Climbing Oakland Center
Fri 03:39:24 AM 38.5458 -122.7014 329° Northwest 472 543 33,900 -50 Descending Oakland Center
Fri 03:40:24 AM 38.6581 -122.7892 329° Northwest 474 545 33,900  Level Oakland Center
Fri 03:41:24 AM 38.7694 -122.8767 329° Northwest 473 544 33,900  Level Oakland Center
Fri 03:42:25 AM 38.8828 -122.9639 329° Northwest 476 548 33,900 50 Level Oakland Center
Fri 03:43:25 AM 38.9953 -123.0525 329° Northwest 477 549 34,000  Climbing Oakland Center
Fri 03:44:25 AM 39.1081 -123.1414 329° Northwest 477 549 33,900  Descending Oakland Center
Fri 03:45:25 AM 39.2225 -123.2328 328° Northwest 484 557 34,000  Climbing Oakland Center
Fri 03:46:25 AM 39.3369 -123.3244 328° Northwest 484 557 33,900  Descending Oakland Center
Fri 03:47:25 AM 39.4672 -123.4292 328° Northwest 492 566 34,000  Climbing Oakland Center
Fri 03:48:26 AM 39.5850 -123.5175 330° Northwest 491 565 33,900 -50 Descending Oakland Center
Fri 03:49:26 AM 39.6975 -123.6119 327° Northwest 485 558 33,900 50 Level Oakland Center
Fri 03:50:26 AM 39.8128 -123.7050 328° Northwest 487 560 34,000 50 Climbing Oakland Center
Fri 03:51:26 AM 39.9286 -123.7992 328° Northwest 490 564 34,000  Level Oakland Center
Fri 03:52:26 AM 40.0450 -123.8936 328° Northwest 493 567 34,000  Level Oakland Center
Fri 03:53:17 AM 40.1383 -123.9697 328° Northwest 492 566 34,000  Level Seattle Center
Fri 03:54:17 AM 40.2544 -124.0636 328° Northwest 493 567 34,000  Level Seattle Center
Fri 03:55:17 AM 40.3839 -124.1703 328° Northwest 497 572 34,000  Level Seattle Center
Fri 03:56:18 AM 40.5000 -124.2656 328° Northwest 495 570 34,000 -50 Level Seattle Center
Fri 03:57:18 AM 40.6122 -124.3589 328° Northwest 488 562 33,900 -50 Descending Seattle Center
Fri 03:58:18 AM 40.7272 -124.4542 328° Northwest 485 558 33,900  Level Seattle Center
Fri 03:59:28 AM 40.8689 -124.5756 327° Northwest 501 577 33,900  Level Oakland Center
Fri 04:00:28 AM 40.9878 -124.6767 327° Northwest 507 583 33,900  Level Oakland Center
Fri 04:01:28 AM 41.1075 -124.7778 328° Northwest 510 587 33,900  Level Oakland Center
Fri 04:02:18 AM 41.2064 -124.8578 329° Northwest 516 594 33,900  Level Seattle Center
Fri 04:03:18 AM 41.3233 -124.9583 327° Northwest 502 578 33,900 50 Level Seattle Center
Fri 04:04:18 AM 41.4408 -125.0567 328° Northwest 499 574 34,000  Climbing Seattle Center
Fri 04:05:19 AM 41.5578 -125.1581 327° Northwest 502 578 33,900  Descending Seattle Center
Fri 04:06:19 AM 41.6739 -125.2581 327° Northwest 498 573 34,000 50 Climbing Seattle Center
Fri 04:07:19 AM 41.7883 -125.3581 327° Northwest 495 570 34,000 -50 Level Seattle Center
Fri 04:08:19 AM 41.9047 -125.4597 327° Northwest 497 572 33,900 -50 Descending Seattle Center
Fri 04:09:19 AM 42.0225 -125.5647 326° Northwest 504 580 33,900  Level Seattle Center
Fri 04:10:19 AM 42.1422 -125.6686 327° Northwest 511 588 33,900 50 Level Seattle Center
Fri 04:11:19 AM 42.2608 -125.7736 327° Northwest 512 589 34,000 50 Climbing Seattle Center
Fri 04:12:19 AM 42.3764 -125.8767 327° Northwest 503 579 34,000  Level Seattle Center
Fri 04:13:19 AM 42.4878 -125.9764 327° Northwest 485 558 34,000 -50 Level Seattle Center
Fri 04:14:19 AM 42.6031 -126.0786 327° Northwest 492 566 33,900 -50 Descending Seattle Center
Fri 04:15:19 AM 42.7172 -126.1775 328° Northwest 489 563 33,900 50 Level Seattle Center
Fri 04:16:20 AM 42.8353 -126.2586 333° Northwest 479 551 34,000 50 Climbing Seattle Center
Fri 04:17:20 AM 42.9514 -126.3322 335° Northwest 482 555 34,000  Level Seattle Center
Fri 04:31:02 AM 43.4333 -126.6500 334° Northwest 491 565 34,000  Level Oakland Oceanic (ODAPS)
Fri 04:59:40 AM 48.0167 -130.0667 331° Northwest 490 564 34,000  Level Vancouver Center
Fri 05:00:00 AM 48.1791 -130.1538 331° Northwest 491 565 34,000  Level FlightAware Transoceanic
Fri 05:00:40 AM 48.1333 -130.1500 335° Northwest 490 564 34,000  Level Vancouver Center
Fri 05:01:00 AM 48.2987 -130.2517 331° Northwest 491 565 34,000  Level FlightAware Transoceanic
Fri 05:01:40 AM 48.2500 -130.2667 326° Northwest 490 564 34,000  Level Vancouver Center
Fri 05:02:00 AM 48.4182 -130.3500 331° Northwest 491 565 34,000  Level FlightAware Transoceanic
Fri 05:02:40 AM 48.3667 -130.3667 330° Northwest 480 552 34,000  Level Vancouver Center
Fri 05:03:00 AM 48.5376 -130.4489 331° Northwest 491 565 34,000  Level FlightAware Transoceanic
Fri 05:03:40 AM 48.5000 -130.4500 338° Northwest 490 564 34,000  Level Vancouver Center
Fri 05:04:00 AM 48.6569 -130.5482 331° Northwest 491 565 34,000  Level FlightAware Transoceanic
Fri 05:04:40 AM 48.6000 -130.5500 327° Northwest 480 552 34,000  Level Vancouver Center
Fri 05:05:40 AM 48.7167 -130.6333 335° Northwest 480 552 34,000  Level Vancouver Center
Fri 05:06:40 AM 48.8500 -130.7500 330° Northwest 490 564 34,000  Level Vancouver Center
Fri 05:07:40 AM 48.9500 -130.8500 327° Northwest 480 552 34,000  Level Vancouver Center
Fri 05:08:40 AM 49.0833 -130.9500 334° Northwest 480 552 34,000  Level Vancouver Center
Fri 05:09:40 AM 49.2000 -131.0667 327° Northwest 490 564 34,000  Level Vancouver Center
Fri 05:10:40 AM 49.3000 -131.1500 331° Northwest 490 564 34,000  Level Vancouver Center
Fri 05:11:40 AM 49.4333 -131.2500 334° Northwest 490 564 34,000  Level Vancouver Center
Fri 05:12:40 AM 49.5500 -131.3500 331° Northwest 490 564 34,000  Level Vancouver Center
Fri 05:13:40 AM 49.6667 -131.4667 327° Northwest 490 564 34,000  Level Vancouver Center
Fri 05:14:40 AM 49.8000 -131.5667 334° Northwest 490 564 34,000  Level Vancouver Center
Fri 05:15:40 AM 49.9000 -131.6667 327° Northwest 490 564 34,000  Level Vancouver Center
Fri 05:16:40 AM 50.0333 -131.7833 331° Northwest 490 564 34,000  Level Vancouver Center
Fri 05:17:40 AM 50.1500 -131.8833 331° Northwest 490 564 34,000  Level Vancouver Center
Fri 05:18:40 AM 50.2667 -131.9833 331° Northwest 490 564 34,000  Level Vancouver Center
Fri 05:19:40 AM 50.3667 -132.1000 323° Northwest 490 564 34,000  Level Vancouver Center
Fri 05:20:40 AM 50.4833 -132.2333 324° Northwest 500 575 34,000  Level Vancouver Center
Fri 05:21:40 AM 50.6167 -132.3333 335° Northwest 490 564 34,000  Level Vancouver Center
Fri 05:22:40 AM 50.7167 -132.4667 320° Northwest 500 575 34,000  Level Vancouver Center
Fri 05:23:40 AM 50.8333 -132.5667 332° Northwest 490 564 34,000  Level Vancouver Center
Fri 05:24:40 AM 50.9500 -132.7000 324° Northwest 490 564 34,000  Level Vancouver Center
Fri 05:25:40 AM 51.0667 -132.8000 332° Northwest 480 552 34,000  Level Vancouver Center
Fri 05:26:40 AM 51.1667 -132.9167 324° Northwest 480 552 34,000  Level Vancouver Center
Fri 05:27:40 AM 51.2833 -133.0167 332° Northwest 480 552 34,000  Level Vancouver Center
Fri 05:28:40 AM 51.4000 -133.1500 325° Northwest 490 564 34,000  Level Vancouver Center
Fri 05:29:40 AM 51.5167 -133.2667 328° Northwest 490 564 34,000  Level Vancouver Center
Fri 05:30:40 AM 51.6167 -133.3833 324° Northwest 480 552 34,000  Level Vancouver Center
Fri 05:31:40 AM 51.7333 -133.5000 328° Northwest 490 564 34,000  Level Vancouver Center
Fri 05:32:40 AM 51.8500 -133.6333 325° Northwest 480 552 34,000  Level Vancouver Center
Fri 05:33:40 AM 51.9667 -133.7333 332° Northwest 490 564 34,000  Level Vancouver Center
Fri 05:34:40 AM 52.0667 -133.8667 321° Northwest 490 564 34,000  Level Vancouver Center
Fri 05:35:40 AM 52.2000 -133.9833 332° Northwest 490 564 34,000  Level Vancouver Center
Fri 05:36:40 AM 52.3000 -134.1167 321° Northwest 490 564 34,000  Level Vancouver Center
Fri 05:37:40 AM 52.4000 -134.2500 321° Northwest 490 564 34,000  Level Vancouver Center
Fri 05:38:40 AM 52.5167 -134.3500 332° Northwest 490 564 34,000  Level Vancouver Center
Fri 05:39:40 AM 52.6333 -134.5000 322° Northwest 490 564 34,000  Level Vancouver Center
Fri 05:40:40 AM 52.7500 -134.6000 333° Northwest 490 564 34,000  Level Vancouver Center
Fri 05:41:40 AM 52.8667 -134.7500 322° Northwest 490 564 34,000  Level Vancouver Center
Fri 05:42:40 AM 52.9667 -134.8667 325° Northwest 490 564 34,000  Level Vancouver Center
Fri 05:43:40 AM 53.0833 -135.0000 326° Northwest 490 564 34,000  Level Vancouver Center
Fri 05:44:40 AM 53.2000 -135.1167 329° Northwest 490 564 34,000  Level Vancouver Center
Fri 05:45:40 AM 53.3000 -135.2500 321° Northwest 490 564 34,000  Level Vancouver Center
Fri 05:46:40 AM 53.4167 -135.4000 323° Northwest 490 564 34,000  Level Vancouver Center
Fri 05:47:40 AM 53.5333 -135.5167 329° Northwest 490 564 34,000  Level Vancouver Center
Fri 05:48:40 AM 53.6333 -135.6500 322° Northwest 490 564 34,000  Level Vancouver Center
Fri 05:49:40 AM 53.7667 -135.7833 329° Northwest 500 575 34,000  Level Vancouver Center
Fri 05:50:40 AM 53.8667 -135.9167 322° Northwest 490 564 34,000  Level Vancouver Center
Fri 05:51:14 AM 53.9333 -135.9167 360° North 500 575 34,000  Level Anchorage Center
Fri 05:52:14 AM 54.0500 -136.0667 323° Northwest 490 564 34,000  Level Anchorage Center
Fri 05:53:15 AM 54.1333 -136.2000 317° Northwest 490 564 34,000  Level Anchorage Center
Fri 05:54:15 AM 54.2333 -136.3667 316° Northwest 490 564 34,000  Level Anchorage Center
Fri 05:55:15 AM 54.3333 -136.5167 319° Northwest 490 564 34,000  Level Anchorage Center
Fri 05:56:16 AM 54.4333 -136.6833 316° Northwest 490 564 34,000  Level Anchorage Center
Fri 05:57:16 AM 54.5333 -136.8500 316° Northwest 490 564 34,000  Level Anchorage Center
Fri 05:58:16 AM 54.6333 -137.0000 319° Northwest 490 564 34,000  Level Anchorage Center
Fri 05:59:17 AM 54.7333 -137.1667 316° Northwest 480 552 34,000  Level Anchorage Center
Fri 06:00:17 AM 54.8333 -137.3167 319° Northwest 490 564 34,000  Level Anchorage Center
Fri 06:01:17 AM 54.9333 -137.4833 316° Northwest 500 575 34,000  Level Anchorage Center
Fri 06:02:18 AM 55.0333 -137.6500 316° Northwest 480 552 34,000 347 Level Anchorage Center
Fri 06:03:18 AM 55.1333 -137.8167 316° Northwest 490 564 34,700 1,000 Climbing Anchorage Center
Fri 06:04:18 AM 55.2500 -138.0167 316° Northwest 490 564 36,000 645 Climbing Anchorage Center
Fri 06:05:19 AM 55.3500 -138.1833 317° Northwest 490 564 36,000  Level Anchorage Center
Fri 06:06:19 AM 55.4500 -138.3500 317° Northwest 480 552 36,000  Level Anchorage Center
Fri 06:07:20 AM 55.5333 -138.5000 315° West 480 552 36,000  Level Anchorage Center
Fri 06:08:20 AM 55.6333 -138.6667 317° Northwest 480 552 36,000  Level Anchorage Center
Fri 06:09:20 AM 55.7333 -138.8333 317° Northwest 480 552 36,000  Level Anchorage Center
Fri 06:10:21 AM 55.8333 -139.0000 317° Northwest 480 552 36,000  Level Anchorage Center
Fri 06:11:21 AM 55.9333 -139.1833 314° West 490 564 36,000  Level Anchorage Center
Fri 06:12:21 AM 56.0167 -139.3500 312° West 480 552 36,000  Level Anchorage Center
Fri 06:13:21 AM 56.1167 -139.5167 317° Northwest 480 552 36,000  Level Anchorage Center
Fri 06:14:22 AM 56.2167 -139.6833 317° Northwest 470 541 36,000  Level Anchorage Center
Fri 06:15:22 AM 56.3000 -139.8667 309° West 480 552 36,000  Level Anchorage Center
Fri 06:16:22 AM 56.4000 -140.0333 317° Northwest 480 552 36,000  Level Anchorage Center
Fri 06:17:23 AM 56.5000 -140.2000 317° Northwest 490 564 36,000  Level Anchorage Center
Fri 06:18:23 AM 56.5833 -140.3833 310° West 480 552 36,000  Level Anchorage Center
Fri 06:19:23 AM 56.6833 -140.5500 318° Northwest 480 552 36,000  Level Anchorage Center
Fri 06:20:24 AM 56.7667 -140.7333 310° West 490 564 36,000  Level Anchorage Center
Fri 06:21:24 AM 56.8667 -140.9000 318° Northwest 490 564 36,000  Level Anchorage Center
Fri 06:22:24 AM 56.9667 -141.0833 315° West 490 564 36,000  Level Anchorage Center
Fri 06:23:25 AM 57.0500 -141.2667 310° West 490 564 36,000  Level Anchorage Center
Fri 06:24:25 AM 57.1500 -141.4500 315° West 480 552 36,000  Level Anchorage Center
Fri 06:25:26 AM 57.2333 -141.6333 310° West 480 552 36,000  Level Anchorage Center
Fri 06:26:26 AM 57.3333 -141.8167 315° West 490 564 36,000  Level Anchorage Center
Fri 06:27:26 AM 57.4333 -142.0000 315° West 490 564 36,000  Level Anchorage Center
Fri 06:28:27 AM 57.5167 -142.1833 310° West 480 552 36,000  Level Anchorage Center
Fri 06:29:27 AM 57.6167 -142.3667 316° Northwest 480 552 36,000  Level Anchorage Center
Fri 06:30:27 AM 57.7000 -142.5500 310° West 490 564 36,000  Level Anchorage Center
Fri 06:31:28 AM 57.8000 -142.7500 313° West 480 552 36,000  Level Anchorage Center
Fri 06:32:28 AM 57.8833 -142.9333 311° West 480 552 36,000  Level Anchorage Center
Fri 06:33:29 AM 57.9833 -143.1333 313° West 470 541 36,000  Level Anchorage Center
Fri 06:34:29 AM 58.0667 -143.3167 311° West 480 552 36,000  Level Anchorage Center
Fri 06:35:29 AM 58.1667 -143.5167 314° West 480 552 36,000  Level Anchorage Center
Fri 06:36:30 AM 58.2500 -143.7000 311° West 480 552 36,000  Level Anchorage Center
Fri 06:37:30 AM 58.3333 -143.8833 311° West 470 541 36,000  Level Anchorage Center
Fri 06:38:30 AM 58.4333 -144.0833 314° West 480 552 36,000  Level Anchorage Center
Fri 06:39:31 AM 58.5167 -144.2833 309° West 480 552 36,000  Level Anchorage Center
Fri 06:40:31 AM 58.6000 -144.4833 309° West 480 552 36,000  Level Anchorage Center
Fri 06:41:31 AM 58.7000 -144.6667 316° Northwest 480 552 36,000  Level Anchorage Center
Fri 06:42:32 AM 58.7833 -144.8667 309° West 480 552 36,000  Level Anchorage Center
Fri 06:43:32 AM 58.8667 -145.0833 307° West 490 564 36,000  Level Anchorage Center
Fri 06:44:32 AM 58.9667 -145.2833 314° West 480 552 36,000  Level Anchorage Center
Fri 06:45:33 AM 59.0500 -145.4833 309° West 490 564 36,000  Level Anchorage Center
Fri 06:46:33 AM 59.1333 -145.6833 309° West 490 564 36,000  Level Anchorage Center
Fri 06:47:33 AM 59.2167 -145.9000 307° West 490 564 36,000  Level Anchorage Center
Fri 06:48:34 AM 59.3167 -146.1000 314° West 500 575 36,000  Level Anchorage Center
Fri 06:49:34 AM 59.4000 -146.3000 309° West 500 575 36,000  Level Anchorage Center
Fri 06:50:35 AM 59.5000 -146.5167 312° West 500 575 36,000  Level Anchorage Center
Fri 06:51:35 AM 59.6000 -146.6833 320° Northwest 500 575 36,000  Level Anchorage Center
Fri 06:52:35 AM 59.7000 -146.8833 315° West 510 587 36,000  Level Anchorage Center
Fri 06:53:35 AM 59.8000 -147.0833 315° West 500 575 36,000  Level Anchorage Center
Fri 06:54:36 AM 59.9000 -147.2833 315° West 510 587 36,000  Level Anchorage Center
Fri 06:55:36 AM 60.0000 -147.4833 315° West 520 598 36,000  Level Anchorage Center
Fri 06:56:37 AM 60.1000 -147.6833 315° West 510 587 36,000  Level Anchorage Center
Fri 06:57:37 AM 60.2000 -147.9000 313° West 520 598 36,000  Level Anchorage Center
Fri 06:58:37 AM 60.3167 -148.1500 313° West 530 610 36,000  Level Anchorage Center
Fri 06:59:37 AM 60.4167 -148.3500 315° West 520 598 36,000  Level Anchorage Center
Fri 07:00:37 AM 60.5000 -148.5333 313° West 520 598 36,000  Level Anchorage Center
Fri 07:01:38 AM 60.6167 -148.7667 316° Northwest 520 598 36,000  Level Anchorage Center
Fri 07:02:38 AM 60.7167 -148.9833 313° West 510 587 36,000  Level Anchorage Center
Fri 07:03:39 AM 60.8167 -149.1833 316° Northwest 520 598 36,000  Level Anchorage Center
Fri 07:04:39 AM 60.9167 -149.4000 314° West 520 598 36,000  Level Anchorage Center
Fri 07:05:39 AM 61.0167 -149.6167 314° West 520 598 36,000  Level Anchorage Center
Fri 07:06:40 AM 61.1167 -149.8333 314° West 520 598 36,000  Level Anchorage Center
Fri 07:07:40 AM 61.2000 -150.0667 307° West 510 587 36,000  Level Anchorage Center
Fri 07:08:40 AM 61.3000 -150.3500 306° West 510 587 36,000  Level Anchorage Center
Fri 07:09:41 AM 61.3833 -150.5833 307° West 500 575 36,000  Level Anchorage Center
Fri 07:10:41 AM 61.4667 -150.8167 307° West 490 564 36,000  Level Anchorage Center
Fri 07:11:41 AM 61.5500 -151.0500 307° West 500 575 36,000  Level Anchorage Center
Fri 07:12:42 AM 61.6167 -151.3000 299° West 500 575 36,000  Level Anchorage Center
Fri 07:13:42 AM 61.7000 -151.5333 307° West 500 575 36,000  Level Anchorage Center
Fri 07:14:42 AM 61.8000 -151.8000 309° West 520 598 36,000  Level Anchorage Center
Fri 07:15:43 AM 61.8667 -152.0500 300° West 520 598 36,000  Level Anchorage Center
Fri 07:16:43 AM 61.9667 -152.3167 309° West 520 598 36,000  Level Anchorage Center
Fri 07:17:44 AM 62.0333 -152.5667 300° West 520 598 36,000  Level Anchorage Center
Fri 07:18:44 AM 62.1167 -152.8167 306° West 520 598 36,000  Level Anchorage Center
Fri 07:19:44 AM 62.2000 -153.0667 306° West 530 610 36,000  Level Anchorage Center
Fri 07:20:45 AM 62.2833 -153.3333 304° West 530 610 36,000  Level Anchorage Center
Fri 07:21:45 AM 62.3500 -153.6000 298° West 520 598 36,000  Level Anchorage Center
Fri 07:22:45 AM 62.4333 -153.8667 304° West 520 598 36,000  Level Anchorage Center
Fri 07:23:46 AM 62.5167 -154.1167 306° West 510 587 36,000  Level Anchorage Center
Fri 07:24:46 AM 62.6000 -154.3833 304° West 510 587 36,000  Level Anchorage Center
Fri 07:25:46 AM 62.6667 -154.6500 299° West 510 587 36,000  Level Anchorage Center
Fri 07:26:47 AM 62.7500 -154.9167 304° West 530 610 36,000  Level Anchorage Center
Fri 07:27:47 AM 62.8333 -155.2000 303° West 520 598 36,000  Level Anchorage Center
Fri 07:28:47 AM 62.9000 -155.4500 300° West 510 587 36,000  Level Anchorage Center
Fri 07:29:48 AM 62.9833 -155.7667 300° West 500 575 36,000  Level Anchorage Center
Fri 07:30:48 AM 63.0333 -156.0500 291° West 500 575 36,000  Level Anchorage Center
Fri 07:31:48 AM 63.0833 -156.3167 293° West 510 587 36,000  Level Anchorage Center
Fri 07:32:49 AM 63.1500 -156.6000 298° West 490 564 36,000  Level Anchorage Center
Fri 07:33:49 AM 63.2000 -156.8833 291° West 500 575 36,000  Level Anchorage Center
Fri 07:34:50 AM 63.2667 -157.1667 298° West 500 575 36,000  Level Anchorage Center
Fri 07:35:50 AM 63.3167 -157.4500 292° West 500 575 36,000  Level Anchorage Center
Fri 07:36:50 AM 63.3667 -157.7500 291° West 510 587 36,000  Level Anchorage Center
Fri 07:37:51 AM 63.4333 -158.0333 298° West 510 587 36,000  Level Anchorage Center
Fri 07:38:51 AM 63.4833 -158.3333 291° West 510 587 36,000  Level Anchorage Center
Fri 07:39:52 AM 63.5333 -158.6167 292° West 500 575 36,000  Level Anchorage Center
Fri 07:40:52 AM 63.5833 -158.9167 291° West 500 575 36,000  Level Anchorage Center
Fri 07:41:52 AM 63.6333 -159.2000 292° West 500 575 36,000  Level Anchorage Center
Fri 07:42:53 AM 63.6833 -159.5000 291° West 500 575 36,000  Level Anchorage Center
Fri 07:43:53 AM 63.7333 -159.7833 292° West 500 575 36,000  Level Anchorage Center
Fri 07:44:53 AM 63.7833 -160.0833 291° West 500 575 36,000  Level Anchorage Center
Fri 07:45:54 AM 63.8333 -160.3833 291° West 500 575 36,000  Level Anchorage Center
Fri 07:46:54 AM 63.8833 -160.6833 291° West 500 575 36,000  Level Anchorage Center
Fri 07:47:54 AM 63.9333 -160.9833 291° West 500 575 36,000  Level Anchorage Center
Fri 07:48:55 AM 63.9833 -161.2833 291° West 500 575 36,000  Level Anchorage Center
Fri 07:49:55 AM 64.0167 -161.5833 284° West 500 575 36,000  Level Anchorage Center
Fri 07:50:55 AM 64.0667 -161.8833 291° West 500 575 36,000  Level Anchorage Center
Fri 07:51:56 AM 64.1000 -162.2333 282° West 490 564 36,000  Level Anchorage Center
Fri 07:52:56 AM 64.1500 -162.5333 291° West 490 564 36,000  Level Anchorage Center
Fri 07:53:56 AM 64.1833 -162.8500 284° West 500 575 36,000  Level Anchorage Center
Fri 07:54:56 AM 64.2333 -163.1500 291° West 510 587 36,000  Level Anchorage Center
Fri 07:55:57 AM 64.2667 -163.4667 284° West 500 575 36,000  Level Anchorage Center
Fri 07:56:57 AM 64.3000 -163.7667 284° West 500 575 36,000  Level Anchorage Center
Fri 07:57:57 AM 64.3500 -164.0833 290° West 490 564 36,000  Level Anchorage Center
Fri 07:58:58 AM 64.3833 -164.3833 285° West 500 575 36,000  Level Anchorage Center
Fri 07:59:58 AM 64.4167 -164.7000 284° West 500 575 36,000  Level Anchorage Center
Fri 08:00:59 AM 64.4500 -165.0167 284° West 490 564 36,000  Level Anchorage Center
Fri 08:01:59 AM 64.4833 -165.3167 285° West 490 564 36,000  Level Anchorage Center
Fri 08:02:59 AM 64.4833 -165.6333 270° West 480 552 36,000  Level Anchorage Center
Fri 08:04:00 AM 64.4833 -165.9667 270° West 500 575 36,000  Level Anchorage Center
Fri 08:05:00 AM 64.4833 -166.2833 270° West 490 564 36,000  Level Anchorage Center
Fri 08:06:00 AM 64.4833 -166.6000 270° West 490 564 36,000  Level Anchorage Center
Fri 08:07:01 AM 64.4833 -166.9333 270° West 500 575 36,000  Level Anchorage Center
Fri 08:08:01 AM 64.4667 -167.2500 263° West 490 564 36,000  Level Anchorage Center
Fri 08:09:01 AM 64.4667 -167.5667 270° West 490 564 36,000  Level Anchorage Center
Fri 08:10:02 AM 64.4667 -167.8833 270° West 490 564 36,000  Level Anchorage Center
Fri 08:11:02 AM 64.4500 -168.2000 263° West 500 575 36,000  Level Anchorage Center
Fri 08:12:02 AM 64.4500 -168.5167 270° West 490 564 36,000  Level Anchorage Center
Fri 08:13:03 AM 64.4500 -168.8500 270° West 490 564 36,000  Level Anchorage Center
Fri 08:14:03 AM 64.4333 -169.1667 263° West 490 564 36,000  Level Anchorage Center
Fri 08:15:04 AM 64.4333 -169.4833 270° West 490 564 36,000  Level Anchorage Center
Fri 08:16:04 AM 64.4333 -169.8000 270° West 490 564 36,000  Level Anchorage Center
Fri 08:17:04 AM 64.4167 -170.1167 263° West 490 564 36,000  Level Anchorage Center
Fri 08:18:05 AM 64.4167 -170.4167 270° West 480 552 36,000  Level Anchorage Center
Fri 08:19:05 AM 64.4000 -170.7333 263° West 480 552 36,000  Level Anchorage Center
Fri 08:20:05 AM 64.3833 -171.0500 263° West 490 564 36,000  Level Anchorage Center
Fri 08:21:06 AM 64.3833 -171.3667 270° West 490 564 36,000  Level Anchorage Center
Fri 08:22:06 AM 64.3667 -171.6833 263° West 490 564 36,000  Level Anchorage Center
Fri 08:24:00 AM 64.3684 -172.2630 271° West  Level FlightAware Approximate
Fri 08:31:00 AM 64.3668 -174.3982 271° West  Level FlightAware Approximate
Fri 08:32:00 AM 64.3872 -174.6992 280° West  Level FlightAware Approximate
Fri 08:33:00 AM 64.4098 -175.0000 280° West  Level FlightAware Approximate
Fri 08:34:00 AM 64.4317 -175.3014 280° West  Level FlightAware Approximate
Fri 08:35:00 AM 64.4531 -175.6032 279° West  Level FlightAware Approximate
Fri 08:36:00 AM 64.4734 -175.9057 278° West  Level FlightAware Approximate
Fri 08:37:00 AM 64.4921 -176.2089 278° West  Level FlightAware Approximate
Fri 08:38:00 AM 64.5102 -176.5125 278° West  Level FlightAware Approximate
Fri 08:39:00 AM 64.5277 -176.8165 278° West  Level FlightAware Approximate
Fri 08:40:00 AM 64.5446 -177.1209 277° West  Level FlightAware Approximate
Fri 08:41:00 AM 64.5609 -177.4257 277° West  Level FlightAware Approximate
Fri 08:42:00 AM 64.5765 -177.7308 277° West  Level FlightAware Approximate
Fri 08:43:00 AM 64.5915 -178.0363 277° West  Level FlightAware Approximate
Fri 08:44:00 AM 64.6058 -178.3421 276° West  Level FlightAware Approximate
Fri 08:45:00 AM 64.6191 -178.6483 275° West  Level FlightAware Approximate
Fri 08:46:00 AM 64.6303 -178.9551 275° West  Level FlightAware Approximate
Fri 08:47:00 AM 64.6408 -179.2621 275° West  Level FlightAware Approximate
Fri 08:48:00 AM 64.6507 -179.5694 274° West  Level FlightAware Approximate
Fri 08:49:00 AM 64.6599 -179.8769 274° West  Level FlightAware Approximate
Fri 08:50:00 AM 64.6693 179.8155 275° West  Level FlightAware Approximate
Fri 08:51:00 AM 64.6806 179.5081 275° West  Level FlightAware Approximate
Fri 08:52:00 AM 64.6913 179.2005 275° West  Level FlightAware Approximate
Fri 08:53:00 AM 64.7013 178.8927 275° West  Level FlightAware Approximate
Fri 08:54:00 AM 64.7107 178.5847 274° West  Level FlightAware Approximate
Fri 08:55:00 AM 64.7195 178.2764 274° West  Level FlightAware Approximate
Fri 08:56:00 AM 64.7276 177.9679 274° West  Level FlightAware Approximate
Fri 08:57:00 AM 64.7344 177.6592 272° West  Level FlightAware Approximate
Fri 08:58:00 AM 64.7382 177.3502 272° West  Level FlightAware Approximate
Fri 08:59:00 AM 64.7414 177.0410 272° West  Level FlightAware Approximate
Fri 09:00:00 AM 64.7440 176.7318 271° West  Level FlightAware Approximate
Fri 09:01:00 AM 64.7459 176.4226 271° West  Level FlightAware Approximate
Fri 09:02:00 AM 64.7471 176.1133 271° West  Level FlightAware Approximate
Fri 09:03:00 AM 64.7478 175.8040 270° West  Level FlightAware Approximate
Fri 09:04:00 AM 64.7477 175.4947 270° West  Level FlightAware Approximate
Fri 09:05:00 AM 64.7471 175.1854 270° West  Level FlightAware Approximate
Fri 09:06:00 AM 64.7458 174.8761 270° West  Level FlightAware Approximate
Fri 09:07:00 AM 64.7438 174.5668 269° West  Level FlightAware Approximate
Fri 09:08:00 AM 64.7412 174.2576 269° West  Level FlightAware Approximate
Fri 09:09:00 AM 64.7380 173.9485 269° West  Level FlightAware Approximate
Fri 09:10:00 AM 64.7341 173.6394 268° West  Level FlightAware Approximate
Fri 09:11:00 AM 64.7296 173.3305 268° West  Level FlightAware Approximate
Fri 09:12:00 AM 64.7244 173.0217 268° West  Level FlightAware Approximate
Fri 09:13:00 AM 64.7186 172.7129 268° West  Level FlightAware Approximate
Fri 09:14:00 AM 64.7133 172.4042 268° West  Level FlightAware Approximate
Fri 09:15:00 AM 64.7078 172.0956 268° West  Level FlightAware Approximate
Fri 09:16:00 AM 64.7017 171.7871 267° West  Level FlightAware Approximate
Fri 09:17:00 AM 64.6949 171.4788 267° West  Level FlightAware Approximate
Fri 09:18:00 AM 64.6875 171.1706 267° West  Level FlightAware Approximate
Fri 09:19:00 AM 64.6795 170.8626 267° West  Level FlightAware Approximate
Fri 09:20:00 AM 64.6708 170.5547 266° West  Level FlightAware Approximate
Fri 09:21:00 AM 64.6323 170.2669 242° Southwest  Level FlightAware Approximate
Fri 09:22:00 AM 64.5696 169.9962 242° Southwest  Level FlightAware Approximate
Fri 09:23:00 AM 64.5064 169.7267 242° Southwest  Level FlightAware Approximate
Fri 09:24:00 AM 64.4428 169.4585 241° Southwest  Level FlightAware Approximate
Fri 09:25:00 AM 64.3786 169.1916 241° Southwest  Level FlightAware Approximate
Fri 09:26:00 AM 64.3140 168.9258 241° Southwest  Level FlightAware Approximate
Fri 09:27:00 AM 64.2489 168.6614 241° Southwest  Level FlightAware Approximate
Fri 09:28:00 AM 64.1833 168.3981 240° Southwest  Level FlightAware Approximate
Fri 09:29:00 AM 64.1172 168.1362 240° Southwest  Level FlightAware Approximate
Fri 09:30:00 AM 64.0507 167.8754 240° Southwest  Level FlightAware Approximate
Fri 09:31:00 AM 63.9837 167.6160 240° Southwest  Level FlightAware Approximate
Fri 09:32:00 AM 63.9162 167.3577 239° Southwest  Level FlightAware Approximate
Fri 09:33:00 AM 63.8483 167.1007 239° Southwest  Level FlightAware Approximate
Fri 09:34:00 AM 63.7799 166.8450 239° Southwest  Level FlightAware Approximate
Fri 09:35:00 AM 63.7111 166.5905 239° Southwest  Level FlightAware Approximate
Fri 09:36:00 AM 63.6418 166.3372 238° Southwest  Level FlightAware Approximate
Fri 09:37:00 AM 63.5721 166.0852 238° Southwest  Level FlightAware Approximate
Fri 09:38:00 AM 63.5019 165.8344 238° Southwest  Level FlightAware Approximate
Fri 09:39:00 AM 63.4313 165.5848 238° Southwest  Level FlightAware Approximate
Fri 09:40:00 AM 63.3606 165.3360 238° Southwest  Level FlightAware Approximate
Fri 09:41:00 AM 63.2901 165.0876 238° Southwest  Level FlightAware Approximate
Fri 09:42:00 AM 63.2191 164.8404 238° Southwest  Level FlightAware Approximate
Fri 09:43:00 AM 63.1477 164.5945 237° Southwest  Level FlightAware Approximate
Fri 09:44:00 AM 63.0758 164.3497 237° Southwest  Level FlightAware Approximate
Fri 09:45:00 AM 63.0035 164.1063 236° Southwest  Level FlightAware Approximate
Fri 09:46:00 AM 62.9301 163.8650 236° Southwest  Level FlightAware Approximate
Fri 09:47:00 AM 62.8563 163.6250 236° Southwest  Level FlightAware Approximate
Fri 09:48:00 AM 62.7821 163.3861 236° Southwest  Level FlightAware Approximate
Fri 09:49:00 AM 62.7075 163.1484 236° Southwest  Level FlightAware Approximate
Fri 09:50:00 AM 62.6325 162.9119 235° Southwest  Level FlightAware Approximate
Fri 09:51:00 AM 62.5571 162.6766 235° Southwest  Level FlightAware Approximate
Fri 09:52:00 AM 62.4813 162.4425 235° Southwest  Level FlightAware Approximate
Fri 09:53:00 AM 62.4051 162.2096 235° Southwest  Level FlightAware Approximate
Fri 09:54:00 AM 62.3286 161.9779 235° Southwest  Level FlightAware Approximate
Fri 09:55:00 AM 62.2516 161.7474 234° Southwest  Level FlightAware Approximate
Fri 09:56:00 AM 62.1743 161.5180 234° Southwest  Level FlightAware Approximate
Fri 09:57:00 AM 62.0966 161.2899 234° Southwest  Level FlightAware Approximate
Fri 09:58:00 AM 62.0185 161.0628 234° Southwest  Level FlightAware Approximate
Fri 09:59:00 AM 61.9400 160.8370 234° Southwest  Level FlightAware Approximate
Fri 10:00:00 AM 61.8612 160.6123 233° Southwest  Level FlightAware Approximate
Fri 10:01:00 AM 61.7940 160.3729 243° Southwest  Level FlightAware Approximate
Fri 10:02:00 AM 61.7328 160.1257 242° Southwest  Level FlightAware Approximate
Fri 10:03:00 AM 61.6712 159.8796 242° Southwest  Level FlightAware Approximate
Fri 10:04:00 AM 61.6091 159.6344 242° Southwest  Level FlightAware Approximate
Fri 10:05:00 AM 61.5466 159.3902 242° Southwest  Level FlightAware Approximate
Fri 10:06:00 AM 61.4837 159.1471 242° Southwest  Level FlightAware Approximate
Fri 10:07:00 AM 61.4203 158.9048 241° Southwest  Level FlightAware Approximate
Fri 10:08:00 AM 61.3566 158.6636 241° Southwest  Level FlightAware Approximate
Fri 10:09:00 AM 61.2924 158.4234 241° Southwest  Level FlightAware Approximate
Fri 10:10:00 AM 61.2277 158.1841 241° Southwest  Level FlightAware Approximate
Fri 10:11:00 AM 61.1627 157.9459 241° Southwest  Level FlightAware Approximate
Fri 10:12:00 AM 61.0972 157.7086 240° Southwest  Level FlightAware Approximate
Fri 10:13:00 AM 61.0313 157.4723 240° Southwest  Level FlightAware Approximate
Fri 10:14:00 AM 60.9650 157.2370 240° Southwest  Level FlightAware Approximate
Fri 10:15:00 AM 60.8983 157.0026 240° Southwest  Level FlightAware Approximate
Fri 10:16:00 AM 60.8312 156.7693 240° Southwest  Level FlightAware Approximate
Fri 10:17:00 AM 60.7637 156.5369 239° Southwest  Level FlightAware Approximate
Fri 10:18:00 AM 60.6958 156.3055 239° Southwest  Level FlightAware Approximate
Fri 10:19:00 AM 60.6274 156.0751 239° Southwest  Level FlightAware Approximate
Fri 10:20:00 AM 60.5587 155.8456 239° Southwest  Level FlightAware Approximate
Fri 10:21:00 AM 60.4896 155.6172 239° Southwest  Level FlightAware Approximate
Fri 10:22:00 AM 60.4201 155.3897 238° Southwest  Level FlightAware Approximate
Fri 10:23:00 AM 60.3503 155.1631 238° Southwest  Level FlightAware Approximate
Fri 10:24:00 AM 60.2800 154.9376 238° Southwest  Level FlightAware Approximate
Fri 10:25:00 AM 60.2094 154.7130 238° Southwest  Level FlightAware Approximate
Fri 10:26:00 AM 60.1384 154.4894 238° Southwest  Level FlightAware Approximate
Fri 10:27:00 AM 60.0670 154.2668 237° Southwest  Level FlightAware Approximate
Fri 10:28:00 AM 59.9952 154.0452 237° Southwest  Level FlightAware Approximate
Fri 10:29:00 AM 59.9230 153.8244 237° Southwest  Level FlightAware Approximate
Fri 10:30:00 AM 59.8505 153.6047 237° Southwest  Level FlightAware Approximate
Fri 10:31:00 AM 59.7776 153.3859 237° Southwest  Level FlightAware Approximate
Fri 10:32:00 AM 59.7044 153.1681 236° Southwest  Level FlightAware Approximate
Fri 10:33:00 AM 59.6308 152.9512 236° Southwest  Level FlightAware Approximate
Fri 10:34:00 AM 59.5568 152.7353 236° Southwest  Level FlightAware Approximate
Fri 10:35:00 AM 59.4825 152.5204 236° Southwest  Level FlightAware Approximate
Fri 10:36:00 AM 59.4078 152.3063 236° Southwest  Level FlightAware Approximate
Fri 10:37:00 AM 59.3328 152.0932 235° Southwest  Level FlightAware Approximate
Fri 10:38:00 AM 59.2575 151.8811 235° Southwest  Level FlightAware Approximate
Fri 10:39:00 AM 59.1818 151.6699 235° Southwest  Level FlightAware Approximate
Fri 10:40:00 AM 59.1057 151.4597 235° Southwest  Level FlightAware Approximate
Fri 10:41:00 AM 59.0294 151.2503 235° Southwest  Level FlightAware Approximate
Fri 10:42:00 AM 58.9526 151.0419 235° Southwest  Level FlightAware Approximate
Fri 10:43:00 AM 58.8756 150.8345 234° Southwest  Level FlightAware Approximate
Fri 10:44:00 AM 58.7982 150.6279 234° Southwest  Level FlightAware Approximate
Fri 10:45:00 AM 58.7205 150.4223 234° Southwest  Level FlightAware Approximate
Fri 10:46:00 AM 58.6425 150.2176 234° Southwest  Level FlightAware Approximate
Fri 10:47:00 AM 58.5641 150.0138 234° Southwest  Level FlightAware Approximate
Fri 10:48:00 AM 58.4854 149.8109 233° Southwest  Level FlightAware Approximate
Fri 10:49:00 AM 58.4064 149.6089 233° Southwest  Level FlightAware Approximate
Fri 10:50:00 AM 58.3271 149.4078 233° Southwest  Level FlightAware Approximate
Fri 10:51:00 AM 58.2475 149.2077 233° Southwest  Level FlightAware Approximate
Fri 10:52:00 AM 58.1675 149.0084 233° Southwest  Level FlightAware Approximate
Fri 10:53:00 AM 58.0873 148.8100 233° Southwest  Level FlightAware Approximate
Fri 10:54:00 AM 58.0067 148.6125 232° Southwest  Level FlightAware Approximate
Fri 10:55:00 AM 57.9259 148.4160 232° Southwest  Level FlightAware Approximate
Fri 10:56:00 AM 57.8447 148.2202 232° Southwest  Level FlightAware Approximate
Fri 10:57:00 AM 57.7632 148.0254 232° Southwest  Level FlightAware Approximate
Fri 10:58:00 AM 57.6815 147.8315 232° Southwest  Level FlightAware Approximate
Fri 10:59:00 AM 57.5994 147.6384 232° Southwest  Level FlightAware Approximate
Fri 11:00:00 AM 57.5171 147.4462 231° Southwest  Level FlightAware Approximate
Fri 11:01:00 AM 57.4344 147.2549 231° Southwest  Level FlightAware Approximate
Fri 11:02:00 AM 57.3515 147.0644 231° Southwest  Level FlightAware Approximate
Fri 11:03:00 AM 57.2683 146.8748 231° Southwest  Level FlightAware Approximate
Fri 11:04:00 AM 57.1848 146.6860 231° Southwest  Level FlightAware Approximate
Fri 11:05:00 AM 57.1010 146.4981 231° Southwest  Level FlightAware Approximate
Fri 11:06:00 AM 57.0169 146.3111 231° Southwest  Level FlightAware Approximate
Fri 11:07:00 AM 56.9326 146.1248 230° Southwest  Level FlightAware Approximate
Fri 11:08:00 AM 56.8480 145.9395 230° Southwest  Level FlightAware Approximate
Fri 11:09:00 AM 56.7631 145.7549 230° Southwest  Level FlightAware Approximate
Fri 11:10:00 AM 56.6779 145.5712 230° Southwest  Level FlightAware Approximate
Fri 11:11:00 AM 56.5925 145.3884 230° Southwest  Level FlightAware Approximate
Fri 11:12:00 AM 56.5068 145.2063 230° Southwest  Level FlightAware Approximate
Fri 11:13:00 AM 56.4208 145.0251 229° Southwest  Level FlightAware Approximate
Fri 11:14:00 AM 56.3346 144.8447 229° Southwest  Level FlightAware Approximate
Fri 11:15:00 AM 56.2481 144.6651 229° Southwest  Level FlightAware Approximate
Fri 11:16:00 AM 56.1614 144.4864 229° Southwest  Level FlightAware Approximate
Fri 11:17:00 AM 56.0744 144.3084 229° Southwest  Level FlightAware Approximate
Fri 11:18:00 AM 55.9872 144.1312 229° Southwest  Level FlightAware Approximate
Fri 11:19:00 AM 55.8997 143.9549 229° Southwest  Level FlightAware Approximate
Fri 11:20:00 AM 55.8119 143.7793 228° Southwest  Level FlightAware Approximate
Fri 11:21:00 AM 55.7239 143.6045 228° Southwest  Level FlightAware Approximate
Fri 11:22:00 AM 55.6356 143.4305 228° Southwest  Level FlightAware Approximate
Fri 11:23:00 AM 55.5471 143.2573 228° Southwest  Level FlightAware Approximate
Fri 11:24:00 AM 55.4584 143.0849 228° Southwest  Level FlightAware Approximate
Fri 11:25:00 AM 55.3694 142.9133 228° Southwest  Level FlightAware Approximate
Fri 11:26:00 AM 55.2802 142.7424 228° Southwest  Level FlightAware Approximate
Fri 11:27:00 AM 55.1907 142.5723 227° Southwest  Level FlightAware Approximate
Fri 11:28:00 AM 55.1010 142.4029 227° Southwest  Level FlightAware Approximate
Fri 11:29:00 AM 55.0111 142.2343 227° Southwest  Level FlightAware Approximate
Fri 11:30:00 AM 54.9209 142.0665 227° Southwest  Level FlightAware Approximate
Fri 11:31:00 AM 54.8306 141.8994 227° Southwest  Level FlightAware Approximate
Fri 11:33:47 AM 54.5778 141.4382 227° Southwest  Level FlightAware Approximate
Fri 11:35:00 AM 54.4667 141.2385 226° Southwest  Level FlightAware Approximate
Fri 11:36:00 AM 54.3752 141.0751 226° Southwest  Level FlightAware Approximate
Fri 11:37:00 AM 54.2835 140.9124 226° Southwest  Level FlightAware Approximate
Fri 11:38:00 AM 54.1915 140.7505 226° Southwest  Level FlightAware Approximate
Fri 11:39:00 AM 54.0993 140.5893 226° Southwest  Level FlightAware Approximate
Fri 11:40:00 AM 54.0069 140.4288 226° Southwest  Level FlightAware Approximate
Fri 11:41:00 AM 53.9143 140.2690 225° Southwest  Level FlightAware Approximate
Fri 11:42:00 AM 53.8215 140.1099 225° Southwest  Level FlightAware Approximate
Fri 11:43:00 AM 53.7285 139.9515 225° Southwest  Level FlightAware Approximate
Fri 11:44:00 AM 53.6353 139.7938 225° Southwest  Level FlightAware Approximate
Fri 11:45:00 AM 53.5419 139.6369 225° Southwest  Level FlightAware Approximate
Fri 11:46:00 AM 53.4482 139.4806 225° Southwest  Level FlightAware Approximate
Fri 11:47:00 AM 53.3544 139.3250 225° Southwest  Level FlightAware Approximate
Fri 11:48:00 AM 53.2603 139.1700 225° Southwest  Level FlightAware Approximate
Fri 11:49:00 AM 53.1661 139.0158 224° Southwest  Level FlightAware Approximate
Fri 11:50:00 AM 53.0717 138.8622 224° Southwest  Level FlightAware Approximate
Fri 11:51:00 AM 52.9770 138.7094 224° Southwest  Level FlightAware Approximate
Fri 11:52:00 AM 52.8822 138.5571 224° Southwest  Level FlightAware Approximate
Fri 11:53:00 AM 52.7872 138.4056 224° Southwest  Level FlightAware Approximate
Fri 11:54:00 AM 52.6919 138.2547 224° Southwest  Level FlightAware Approximate
Fri 11:55:00 AM 52.5965 138.1045 224° Southwest  Level FlightAware Approximate
Fri 11:56:00 AM 52.5009 137.9549 224° Southwest  Level FlightAware Approximate
Fri 11:57:00 AM 52.4051 137.8060 224° Southwest  Level FlightAware Approximate
Fri 11:58:00 AM 52.3092 137.6577 223° Southwest  Level FlightAware Approximate
Fri 11:59:00 AM 52.2130 137.5100 223° Southwest  Level FlightAware Approximate
Fri 12:00:00 PM 52.1167 137.3630 223° Southwest  Level FlightAware Approximate
Fri 12:01:00 PM 52.0201 137.2167 223° Southwest  Level FlightAware Approximate
Fri 12:02:00 PM 51.9234 137.0709 223° Southwest  Level FlightAware Approximate
Fri 12:03:00 PM 51.8266 136.9258 223° Southwest  Level FlightAware Approximate
Fri 12:04:00 PM 51.7295 136.7813 223° Southwest  Level FlightAware Approximate
Fri 12:05:00 PM 51.6323 136.6375 223° Southwest  Level FlightAware Approximate
Fri 12:06:00 PM 51.5349 136.4942 222° Southwest  Level FlightAware Approximate
Fri 12:07:00 PM 51.4373 136.3516 222° Southwest  Level FlightAware Approximate
Fri 12:08:00 PM 51.3395 136.2095 222° Southwest  Level FlightAware Approximate
Fri 12:09:00 PM 51.2416 136.0681 222° Southwest  Level FlightAware Approximate
Fri 12:10:00 PM 51.1435 135.9273 222° Southwest  Level FlightAware Approximate
Fri 12:11:00 PM 51.0452 135.7870 222° Southwest  Level FlightAware Approximate
Fri 12:12:00 PM 50.9468 135.6474 222° Southwest  Level FlightAware Approximate
Fri 12:13:00 PM 50.8482 135.5084 222° Southwest  Level FlightAware Approximate
Fri 12:14:00 PM 50.7494 135.3699 222° Southwest  Level FlightAware Approximate
Fri 12:15:00 PM 50.6505 135.2321 221° Southwest  Level FlightAware Approximate
Fri 12:16:00 PM 50.5514 135.0948 221° Southwest  Level FlightAware Approximate
Fri 12:17:00 PM 50.4521 134.9580 221° Southwest  Level FlightAware Approximate
Fri 12:18:00 PM 50.3527 134.8219 221° Southwest  Level FlightAware Approximate
Fri 12:19:00 PM 50.2532 134.6863 221° Southwest  Level FlightAware Approximate
Fri 12:20:00 PM 50.1534 134.5513 221° Southwest  Level FlightAware Approximate
Fri 12:21:00 PM 50.0536 134.4169 221° Southwest  Level FlightAware Approximate
Fri 12:22:00 PM 49.9535 134.2830 221° Southwest  Level FlightAware Approximate
Fri 12:23:00 PM 49.8533 134.1497 221° Southwest  Level FlightAware Approximate
Fri 12:24:00 PM 49.7530 134.0169 221° Southwest  Level FlightAware Approximate
Fri 12:25:00 PM 49.6525 133.8846 220° Southwest  Level FlightAware Approximate
Fri 12:26:00 PM 49.5519 133.7530 220° Southwest  Level FlightAware Approximate
Fri 12:27:00 PM 49.4511 133.6218 220° Southwest  Level FlightAware Approximate
Fri 12:28:00 PM 49.3501 133.4912 220° Southwest  Level FlightAware Approximate
Fri 12:29:00 PM 49.2490 133.3612 220° Southwest  Level FlightAware Approximate
Fri 12:30:00 PM 49.1478 133.2316 220° Southwest  Level FlightAware Approximate
Fri 12:31:00 PM 49.0464 133.1026 220° Southwest  Level FlightAware Approximate
Fri 12:32:00 PM 48.9449 132.9741 220° Southwest  Level FlightAware Approximate
Fri 12:33:00 PM 48.8433 132.8462 220° Southwest  Level FlightAware Approximate
Fri 12:34:00 PM 48.7415 132.7187 220° Southwest  Level FlightAware Approximate
Fri 12:35:00 PM 48.6395 132.5918 219° Southwest  Level FlightAware Approximate
Fri 12:36:00 PM 48.5374 132.4654 219° Southwest  Level FlightAware Approximate
Fri 12:37:00 PM 48.4352 132.3395 219° Southwest  Level FlightAware Approximate
Fri 12:38:00 PM 48.3329 132.2141 219° Southwest  Level FlightAware Approximate
Fri 12:39:00 PM 48.2304 132.0892 219° Southwest  Level FlightAware Approximate
Fri 12:40:00 PM 48.1278 131.9648 219° Southwest  Level FlightAware Approximate
Fri 12:41:00 PM 48.0250 131.8409 219° Southwest  Level FlightAware Approximate
Fri 12:42:00 PM 47.9221 131.7175 219° Southwest  Level FlightAware Approximate
Fri 12:43:00 PM 47.8191 131.5945 219° Southwest  Level FlightAware Approximate
Fri 12:44:00 PM 47.7159 131.4721 219° Southwest  Level FlightAware Approximate
Fri 12:45:00 PM 47.6127 131.3502 219° Southwest  Level FlightAware Approximate
Fri 12:46:00 PM 47.5092 131.2287 218° Southwest  Level FlightAware Approximate
Fri 12:47:00 PM 47.4057 131.1077 218° Southwest  Level FlightAware Approximate
Fri 12:48:00 PM 47.3020 130.9872 218° Southwest  Level FlightAware Approximate
Fri 12:49:00 PM 47.1982 130.8672 218° Southwest  Level FlightAware Approximate
Fri 12:50:00 PM 47.0943 130.7476 218° Southwest  Level FlightAware Approximate
Fri 12:51:00 PM 46.9903 130.6285 218° Southwest  Level FlightAware Approximate
Fri 12:52:00 PM 46.8861 130.5099 218° Southwest  Level FlightAware Approximate
Fri 12:53:00 PM 46.8097 130.3612 249° West  Level FlightAware Approximate
Fri 12:54:00 PM 46.7617 130.1817 249° West  Level FlightAware Approximate
Fri 12:55:00 PM 46.7135 130.0025 249° West  Level FlightAware Approximate
Fri 12:56:00 PM 46.6650 129.8236 248° West  Level FlightAware Approximate
Fri 12:57:00 PM 46.6161 129.6450 248° West  Level FlightAware Approximate
Fri 12:58:00 PM 46.5670 129.4668 248° West  Level FlightAware Approximate
Fri 12:59:00 PM 46.5177 129.2889 248° West  Level FlightAware Approximate
Fri 01:00:00 PM 46.4680 129.1113 248° West  Level FlightAware Approximate
Fri 01:01:00 PM 46.4181 128.9341 248° West  Level FlightAware Approximate
Fri 01:02:00 PM 46.3679 128.7571 248° West  Level FlightAware Approximate
Fri 01:03:00 PM 46.3174 128.5805 248° West  Level FlightAware Approximate
Fri 01:04:00 PM 46.2667 128.4042 247° West  Level FlightAware Approximate
Fri 01:05:00 PM 46.2156 128.2283 247° West  Level FlightAware Approximate
Fri 01:06:00 PM 46.1644 128.0526 247° West  Level FlightAware Approximate
Fri 01:07:00 PM 46.1128 127.8773 247° West  Level FlightAware Approximate
Fri 01:08:00 PM 46.0610 127.7024 247° West  Level FlightAware Approximate
Fri 01:09:00 PM 46.0089 127.5277 247° West  Level FlightAware Approximate
Fri 01:10:00 PM 45.9566 127.3534 247° West  Level FlightAware Approximate
Fri 01:11:00 PM 45.9039 127.1794 247° West  Level FlightAware Approximate
Fri 01:12:00 PM 45.8511 127.0058 246° West  Level FlightAware Approximate
Fri 01:13:00 PM 45.7979 126.8325 246° West  Level FlightAware Approximate
Fri 01:14:00 PM 45.7445 126.6595 246° West  Level FlightAware Approximate
Fri 01:15:00 PM 45.6909 126.4868 246° West  Level FlightAware Approximate
Fri 01:16:00 PM 45.6369 126.3145 246° West  Level FlightAware Approximate
Fri 01:17:00 PM 45.5542 126.3272 139° Southeast  Level FlightAware Approximate
Fri 01:18:00 PM 45.4543 126.4502 139° Southeast  Level FlightAware Approximate
Fri 01:19:00 PM 45.3543 126.5727 139° Southeast  Level FlightAware Approximate
Fri 01:20:00 PM 45.2542 126.6949 139° Southeast  Level FlightAware Approximate
Fri 01:21:00 PM 45.1539 126.8166 139° Southeast  Level FlightAware Approximate
Fri 01:22:00 PM 45.0535 126.9379 140° Southeast  Level FlightAware Approximate
Fri 01:23:00 PM 44.9529 127.0587 140° Southeast  Level FlightAware Approximate
Fri 01:24:00 PM 44.8522 127.1792 140° Southeast  Level FlightAware Approximate
Fri 01:25:00 PM 44.7514 127.2992 140° Southeast  Level FlightAware Approximate
Fri 01:26:00 PM 44.6505 127.4188 140° Southeast  Level FlightAware Approximate
Fri 01:27:00 PM 44.5494 127.5380 140° Southeast  Level FlightAware Approximate
Fri 01:28:00 PM 44.4483 127.6567 140° Southeast  Level FlightAware Approximate
Fri 01:29:00 PM 44.3470 127.7751 140° Southeast  Level FlightAware Approximate
Fri 01:30:00 PM 44.2456 127.8930 140° Southeast  Level FlightAware Approximate
Fri 01:31:00 PM 44.1440 128.0106 140° Southeast  Level FlightAware Approximate
Fri 01:32:00 PM 44.0424 128.1277 140° Southeast  Level FlightAware Approximate
Fri 01:33:00 PM 43.9406 128.2444 140° Southeast  Level FlightAware Approximate
Fri 01:34:00 PM 43.8387 128.3608 141° Southeast  Level FlightAware Approximate
Fri 01:35:00 PM 43.7367 128.4767 141° Southeast  Level FlightAware Approximate
Fri 01:36:00 PM 43.6345 128.5923 141° Southeast  Level FlightAware Approximate
Fri 01:37:00 PM 43.5313 128.7058 142° Southeast  Level FlightAware Approximate
Fri 01:38:00 PM 43.4271 128.8173 142° Southeast  Level FlightAware Approximate
Fri 01:39:00 PM 43.3228 128.9285 142° Southeast  Level FlightAware Approximate
Fri 01:40:00 PM 43.2183 129.0392 142° Southeast  Level FlightAware Approximate
Fri 01:41:00 PM 43.1138 129.1496 142° Southeast  Level FlightAware Approximate
Fri 01:42:00 PM 43.0098 129.2608 141° Southeast  Level FlightAware Approximate
Fri 01:43:00 PM 42.9068 129.3736 141° Southeast  Level FlightAware Approximate
Fri 01:44:00 PM 42.8038 129.4859 141° Southeast  Level FlightAware Approximate
Fri 01:45:00 PM 42.7006 129.5979 141° Southeast  Level FlightAware Approximate
Fri 01:46:00 PM 42.5973 129.7095 141° Southeast  Level FlightAware Approximate
Fri 01:47:00 PM 42.4939 129.8208 142° Southeast  Level FlightAware Approximate
Fri 01:48:00 PM 42.3904 129.9317 142° Southeast  Level FlightAware Approximate
Fri 01:49:00 PM 42.2867 130.0422 142° Southeast  Level FlightAware Approximate
Fri 01:50:00 PM 42.1830 130.1524 142° Southeast  Level FlightAware Approximate
Fri 01:51:00 PM 42.0792 130.2622 142° Southeast  Level FlightAware Approximate
Fri 01:52:00 PM 41.9752 130.3716 142° Southeast  Level FlightAware Approximate
Fri 01:53:00 PM 41.8712 130.4807 142° Southeast  Level FlightAware Approximate
Fri 01:54:00 PM 41.7670 130.5894 142° Southeast  Level FlightAware Approximate
Fri 01:55:00 PM 41.6628 130.6978 142° Southeast  Level FlightAware Approximate
Fri 01:56:00 PM 41.5584 130.8059 142° Southeast  Level FlightAware Approximate
Fri 01:57:00 PM 41.4540 130.9135 142° Southeast  Level FlightAware Approximate
Fri 01:58:00 PM 41.3493 131.0207 142° Southeast  Level FlightAware Approximate
Fri 01:59:00 PM 41.2446 131.1276 142° Southeast  Level FlightAware Approximate
Fri 02:00:00 PM 41.1398 131.2341 143° Southeast  Level FlightAware Approximate
Fri 02:01:00 PM 41.0349 131.3403 143° Southeast  Level FlightAware Approximate
Fri 02:02:00 PM 40.9299 131.4461 143° Southeast  Level FlightAware Approximate
Fri 02:03:00 PM 40.8247 131.5516 143° Southeast  Level FlightAware Approximate
Fri 02:04:00 PM 40.7195 131.6568 143° Southeast  Level FlightAware Approximate
Fri 02:05:00 PM 40.6142 131.7616 143° Southeast  Level FlightAware Approximate
Fri 02:06:00 PM 40.5088 131.8661 143° Southeast  Level FlightAware Approximate
Fri 02:07:00 PM 40.4034 131.9703 143° Southeast  Level FlightAware Approximate
Fri 02:08:00 PM 40.2978 132.0741 143° Southeast  Level FlightAware Approximate
Fri 02:09:00 PM 40.1921 132.1777 143° Southeast  Level FlightAware Approximate
Fri 02:10:00 PM 40.0863 132.2809 143° Southeast  Level FlightAware Approximate
Fri 02:11:00 PM 39.9806 132.3840 143° Southeast  Level FlightAware Approximate
Fri 02:12:00 PM 39.8748 132.4869 143° Southeast  Level FlightAware Approximate
Fri 02:13:00 PM 39.7690 132.5895 143° Southeast  Level FlightAware Approximate
Fri 02:14:00 PM 39.6631 132.6918 143° Southeast  Level FlightAware Approximate
Fri 02:15:00 PM 39.5570 132.7937 143° Southeast  Level FlightAware Approximate
Fri 02:16:00 PM 39.4509 132.8954 144° Southeast  Level FlightAware Approximate
Fri 02:17:00 PM 39.3447 132.9967 144° Southeast  Level FlightAware Approximate
Fri 02:18:00 PM 39.2384 133.0977 144° Southeast  Level FlightAware Approximate
Fri 02:19:00 PM 39.1320 133.1985 144° Southeast  Level FlightAware Approximate
Fri 02:20:00 PM 39.0255 133.2989 144° Southeast  Level FlightAware Approximate
Fri 02:21:00 PM 38.9190 133.3990 144° Southeast  Level FlightAware Approximate
Fri 02:22:00 PM 38.8123 133.4988 144° Southeast  Level FlightAware Approximate
Fri 02:23:00 PM 38.7056 133.5983 144° Southeast  Level FlightAware Approximate
Fri 02:24:00 PM 38.5987 133.6974 144° Southeast  Level FlightAware Approximate
Fri 02:25:00 PM 38.4917 133.7960 144° Southeast  Level FlightAware Approximate
Fri 02:26:00 PM 38.3845 133.8944 144° Southeast  Level FlightAware Approximate
Fri 02:27:00 PM 38.2773 133.9924 144° Southeast  Level FlightAware Approximate
Fri 02:28:00 PM 38.1700 134.0902 144° Southeast  Level FlightAware Approximate
Fri 02:29:00 PM 38.0626 134.1877 144° Southeast  Level FlightAware Approximate
Fri 02:30:00 PM 37.9552 134.2849 144° Southeast  Level FlightAware Approximate
Fri 02:31:00 PM 37.8476 134.3818 145° Southeast  Level FlightAware Approximate
Fri 02:33:07 PM 37.6197 134.5860 145° Southeast  Level FlightAware Approximate
Fri 02:35:00 PM 37.4167 134.7666 145° Southeast  Level FlightAware Approximate
Fri 02:36:00 PM 37.3087 134.8622 145° Southeast  Level FlightAware Approximate
Fri 02:37:00 PM 37.2007 134.9574 145° Southeast  Level FlightAware Approximate
Fri 02:38:00 PM 37.0927 135.0524 145° Southeast  Level FlightAware Approximate
Fri 02:39:00 PM 36.9845 135.1471 145° Southeast  Level FlightAware Approximate
Fri 02:40:00 PM 36.8763 135.2415 145° Southeast  Level FlightAware Approximate
Fri 02:41:00 PM 36.7679 135.3357 145° Southeast  Level FlightAware Approximate
Fri 02:42:00 PM 36.6596 135.4296 145° Southeast  Level FlightAware Approximate
Fri 02:43:00 PM 36.5511 135.5232 145° Southeast  Level FlightAware Approximate
Fri 02:44:00 PM 36.4426 135.6165 145° Southeast  Level FlightAware Approximate
Fri 02:45:00 PM 36.3340 135.7097 145° Southeast  Level FlightAware Approximate
Fri 02:46:00 PM 36.2253 135.8025 145° Southeast  Level FlightAware Approximate
Fri 02:47:00 PM 36.1166 135.8951 145° Southeast  Level FlightAware Approximate
Fri 02:48:00 PM 36.0077 135.9874 146° Southeast  Level FlightAware Approximate
Fri 02:49:00 PM 35.8988 136.0795 146° Southeast  Level FlightAware Approximate
Fri 02:50:00 PM 35.7899 136.1713 146° Southeast  Level FlightAware Approximate
Fri 02:51:00 PM 35.6809 136.2629 146° Southeast  Level FlightAware Approximate
Fri 02:52:00 PM 35.5729 136.3561 146° Southeast  Level FlightAware Approximate
Fri 02:53:00 PM 35.4639 136.4475 146° Southeast  Level FlightAware Approximate
Fri 02:54:00 PM 35.3549 136.5387 146° Southeast  Level FlightAware Approximate
Fri 02:55:00 PM 35.2458 136.6296 146° Southeast  Level FlightAware Approximate
Fri 02:56:00 PM 35.1366 136.7203 146° Southeast  Level FlightAware Approximate
Fri 02:57:00 PM 35.0274 136.8107 146° Southeast  Level FlightAware Approximate
Fri 02:58:00 PM 34.9157 136.8966 148° Southeast  Level FlightAware Approximate
Fri 02:59:00 PM 34.8897 136.8471 288° West  Level FlightAware Approximate
Fri 03:00:00 PM 34.9305 136.6941 288° West  Level FlightAware Approximate
Fri 03:01:00 PM 34.9770 136.5435 291° West  Level FlightAware Approximate
Fri 03:02:00 PM 35.0238 136.3928 291° West  Level FlightAware Approximate
Fri 03:03:00 PM 35.0704 136.2420 291° West  Level FlightAware Approximate
Fri 03:04:00 PM 35.1190 136.0921 290° West  Level FlightAware Approximate
Fri 03:05:00 PM 35.1644 135.9406 290° West  Level FlightAware Approximate
Fri 03:06:00 PM 35.2095 135.7889 290° West  Level FlightAware Approximate
Fri 03:07:00 PM 35.2545 135.6370 290° West  Level FlightAware Approximate
Fri 03:08:00 PM 35.2992 135.4849 290° West  Level FlightAware Approximate
Fri 03:09:00 PM 35.3438 135.3327 290° West  Level FlightAware Approximate
Fri 03:10:00 PM 35.3882 135.1803 290° West  Level FlightAware Approximate
Fri 03:11:00 PM 35.4324 135.0278 290° West  Level FlightAware Approximate
Fri 03:12:00 PM 35.4734 134.8738 287° West  Level FlightAware Approximate
Fri 03:13:00 PM 35.5121 134.7189 287° West  Level FlightAware Approximate
Fri 03:14:00 PM 35.5508 134.5639 289° West  Level FlightAware Approximate
Fri 03:15:00 PM 35.5939 134.4105 289° West  Level FlightAware Approximate
Fri 03:16:00 PM 35.6368 134.2570 289° West  Level FlightAware Approximate
Fri 03:17:00 PM 35.6795 134.1034 289° West  Level FlightAware Approximate
Fri 03:18:00 PM 35.7220 133.9495 289° West  Level FlightAware Approximate
Fri 03:19:00 PM 35.7643 133.7955 289° West  Level FlightAware Approximate
Fri 03:20:00 PM 35.8064 133.6414 289° West  Level FlightAware Approximate
Fri 03:21:00 PM 35.8483 133.4871 289° West  Level FlightAware Approximate
Fri 03:22:00 PM 35.8900 133.3326 288° West  Level FlightAware Approximate
Fri 03:23:00 PM 35.9316 133.1779 288° West  Level FlightAware Approximate
Fri 03:24:00 PM 35.9729 133.0231 288° West  Level FlightAware Approximate
Fri 03:25:00 PM 36.0140 132.8681 288° West  Level FlightAware Approximate
Fri 03:26:00 PM 36.0550 132.7130 288° West  Level FlightAware Approximate
Fri 03:27:00 PM 36.0957 132.5577 288° West  Level FlightAware Approximate
Fri 03:28:00 PM 36.1362 132.4023 288° West  Level FlightAware Approximate
Fri 03:29:00 PM 36.1765 132.2467 288° West  Level FlightAware Approximate
Fri 03:30:00 PM 36.2166 132.0909 288° West  Level FlightAware Approximate
Fri 03:31:00 PM 36.2565 131.9350 288° West  Level FlightAware Approximate
Fri 03:32:00 PM 36.2963 131.7789 288° West  Level FlightAware Approximate
Fri 03:33:00 PM 36.3358 131.6226 287° West  Level FlightAware Approximate
Fri 03:34:00 PM 36.3751 131.4662 287° West  Level FlightAware Approximate
Fri 03:35:00 PM 36.4146 131.3098 287° West  Level FlightAware Approximate
Fri 03:36:00 PM 36.4539 131.1532 287° West  Level FlightAware Approximate
Fri 03:37:00 PM 36.4930 130.9965 287° West  Level FlightAware Approximate
Fri 03:38:00 PM 36.5320 130.8396 287° West  Level FlightAware Approximate
Fri 03:39:00 PM 36.5707 130.6826 287° West  Level FlightAware Approximate
Fri 03:40:00 PM 36.6092 130.5254 287° West  Level FlightAware Approximate
Fri 03:41:00 PM 36.6475 130.3681 287° West  Level FlightAware Approximate
Fri 03:42:00 PM 36.6857 130.2106 287° West  Level FlightAware Approximate
Fri 03:43:00 PM 36.7236 130.0529 287° West  Level FlightAware Approximate
Fri 03:44:00 PM 36.7612 129.8951 287° West  Level FlightAware Approximate
Fri 03:45:00 PM 36.7987 129.7372 287° West  Level FlightAware Approximate
Fri 03:46:00 PM 36.8360 129.5791 286° West  Level FlightAware Approximate
Fri 03:47:00 PM 36.8731 129.4208 286° West  Level FlightAware Approximate
Fri 03:48:00 PM 36.9099 129.2623 286° West  Level FlightAware Approximate
Fri 03:49:00 PM 36.9461 129.1036 286° West  Level FlightAware Approximate
Fri 03:50:00 PM 36.9819 128.9446 286° West  Level FlightAware Approximate
Fri 03:51:00 PM 37.0174 128.7855 286° West  Level FlightAware Approximate
Fri 03:52:00 PM 37.0528 128.6263 286° West  Level FlightAware Approximate
Fri 03:53:00 PM 37.0880 128.4669 286° West  Level FlightAware Approximate
Fri 03:54:00 PM 37.1229 128.3073 285° West  Level FlightAware Approximate
Fri 03:55:00 PM 37.1576 128.1476 285° West  Level FlightAware Approximate
Fri 03:56:00 PM 37.1922 127.9878 285° West  Level FlightAware Approximate
Fri 03:57:00 PM 37.2265 127.8278 285° West  Level FlightAware Approximate
Fri 03:58:00 PM 37.2605 127.6676 285° West  Level FlightAware Approximate
Fri 03:59:00 PM 37.2944 127.5074 285° West  Level FlightAware Approximate
Fri 04:00:00 PM 37.3281 127.3469 285° West  Level FlightAware Approximate
Fri 04:01:00 PM 37.3615 127.1864 285° West  Level FlightAware Approximate
Fri 04:02:00 PM 37.3947 127.0257 285° West  Level FlightAware Approximate
Fri 04:03:00 PM 37.4281 126.8649 285° West  Level FlightAware Approximate
Fri 04:04:00 PM 37.4612 126.7041 285° West  Level FlightAware Approximate
Fri 04:05:00 PM 37.4942 126.5431 285° West  Level FlightAware Approximate
Fri 04:06:00 PM 37.5269 126.3819 284° West  Level FlightAware Approximate
Fri 04:07:00 PM 37.5595 126.2206 284° West  Level FlightAware Approximate
Fri 04:08:00 PM 37.5918 126.0592 284° West  Level FlightAware Approximate
Fri 04:09:00 PM 37.6239 125.8976 284° West  Level FlightAware Approximate
Fri 04:10:00 PM 37.6557 125.7359 284° West  Level FlightAware Approximate
Fri 04:11:00 PM 37.6874 125.5741 284° West  Level FlightAware Approximate
Fri 04:12:00 PM 37.7188 125.4121 284° West  Level FlightAware Approximate
Fri 04:13:00 PM 37.7500 125.2500 284° West  Level FlightAware Approximate
Fri 04:14:00 PM 37.7810 125.0877 284° West  Level FlightAware Approximate
Fri 04:15:00 PM 37.8117 124.9253 284° West  Level FlightAware Approximate
Fri 04:16:00 PM 37.8423 124.7628 283° West  Level FlightAware Approximate
Fri 04:17:00 PM 37.8726 124.6001 283° West  Level FlightAware Approximate
Fri 04:18:00 PM 37.9027 124.4373 283° West  Level FlightAware Approximate
Fri 04:19:00 PM 37.9325 124.2744 283° West  Level FlightAware Approximate
Fri 04:20:00 PM 37.9622 124.1113 283° West  Level FlightAware Approximate
Fri 04:21:00 PM 37.9916 123.9482 283° West  Level FlightAware Approximate
Fri 04:22:00 PM 38.0208 123.7848 283° West  Level FlightAware Approximate
Fri 04:23:00 PM 38.0497 123.6214 283° West  Level FlightAware Approximate
Fri 04:24:00 PM 38.0785 123.4578 283° West  Level FlightAware Approximate
Fri 04:25:00 PM 38.1070 123.2941 283° West  Level FlightAware Approximate
Fri 04:26:00 PM 38.1353 123.1302 282° West  Level FlightAware Approximate
Fri 04:27:00 PM 38.1633 122.9663 282° West  Level FlightAware Approximate
Fri 04:28:00 PM 38.1911 122.8022 282° West  Level FlightAware Approximate
Fri 04:29:00 PM 38.2187 122.6380 282° West  Level FlightAware Approximate
Fri 04:30:00 PM 38.2461 122.4736 282° West  Level FlightAware Approximate
Fri 04:31:00 PM 38.1705 122.5521 135° Southeast  Level FlightAware Approximate
Fri 04:32:00 PM 38.0775 122.6711 135° Southeast  Level FlightAware Approximate
Fri 04:33:00 PM 37.9844 122.7898 135° Southeast  Level FlightAware Approximate
Fri 04:34:00 PM 37.8911 122.9082 135° Southeast  Level FlightAware Approximate
Fri 04:35:00 PM 37.7978 123.0263 135° Southeast  Level FlightAware Approximate
Fri 04:36:00 PM 37.7043 123.1441 135° Southeast  Level FlightAware Approximate
Fri 04:37:00 PM 37.6107 123.2616 135° Southeast  Level FlightAware Approximate
Fri 04:38:00 PM 37.4968 123.3216 177° South  Level FlightAware Approximate
Fri 04:39:00 PM 37.3651 123.3308 177° South  Level FlightAware Approximate
Fri 04:40:00 PM 37.2333 123.3400 177° South  Level FlightAware Approximate
Fri 04:41:00 PM 37.1016 123.3492 177° South  Level FlightAware Approximate
Fri 04:42:00 PM 36.9698 123.3584 177° South  Level FlightAware Approximate
Fri 04:43:00 PM 36.8381 123.3672 178° South  Level FlightAware Approximate
Fri 04:44:00 PM 36.7062 123.3733 178° South  Level FlightAware Approximate
Fri 04:45:00 PM 36.5743 123.3793 178° South  Level FlightAware Approximate
Fri 04:46:00 PM 36.4424 123.3854 178° South  Level FlightAware Approximate
Fri 04:47:00 PM 36.3106 123.3914 178° South  Level FlightAware Approximate
Fri 04:48:00 PM 36.1787 123.3974 178° South  Level FlightAware Approximate
Fri 04:49:00 PM 36.0468 123.4033 178° South  Level FlightAware Approximate
Fri 04:50:00 PM 35.9150 123.4093 178° South  Level FlightAware Approximate
Fri 04:51:00 PM 35.7831 123.4152 178° South  Level FlightAware Approximate
Fri 04:52:00 PM 35.6512 123.4211 178° South  Level FlightAware Approximate
Fri 04:53:00 PM 35.5193 123.4270 178° South  Level FlightAware Approximate
Fri 04:54:00 PM 35.3875 123.4329 178° South  Level FlightAware Approximate
Fri 04:55:00 PM 35.2556 123.4387 178° South  Level FlightAware Approximate
Fri 04:56:00 PM 35.1237 123.4445 178° South  Level FlightAware Approximate
Fri 04:57:00 PM 34.9919 123.4501 179° South  Level FlightAware Approximate
Fri 04:58:00 PM 34.8599 123.4517 179° South  Level FlightAware Approximate
Fri 04:59:00 PM 34.7280 123.4533 179° South  Level FlightAware Approximate
Fri 05:00:00 PM 34.5960 123.4548 179° South  Level FlightAware Approximate
Fri 05:01:00 PM 34.4641 123.4564 179° South  Level FlightAware Approximate
Fri 05:02:00 PM 34.3321 123.4580 179° South  Level FlightAware Approximate
Fri 05:03:00 PM 34.2002 123.4595 179° South  Level FlightAware Approximate
Fri 05:04:00 PM 34.0682 123.4611 179° South  Level FlightAware Approximate
Fri 05:05:00 PM 33.9363 123.4626 179° South  Level FlightAware Approximate
Fri 05:06:00 PM 33.8043 123.4642 179° South  Level FlightAware Approximate
Fri 05:07:00 PM 33.6724 123.4657 179° South  Level FlightAware Approximate
Fri 05:08:00 PM 33.5404 123.4672 179° South  Level FlightAware Approximate
Fri 05:09:00 PM 33.4085 123.4688 179° South  Level FlightAware Approximate
Fri 05:10:00 PM 33.2765 123.4703 179° South  Level FlightAware Approximate
Fri 05:11:00 PM 33.1446 123.4718 179° South  Level FlightAware Approximate
Fri 05:12:00 PM 33.0126 123.4734 179° South  Level FlightAware Approximate
Fri 05:13:00 PM 32.8807 123.4749 179° South  Level FlightAware Approximate
Fri 05:14:00 PM 32.7487 123.4764 179° South  Level FlightAware Approximate
Fri 05:15:00 PM 32.6168 123.4779 179° South  Level FlightAware Approximate
Fri 05:16:00 PM 32.4848 123.4794 179° South  Level FlightAware Approximate
Fri 05:17:00 PM 32.3529 123.4809 179° South  Level FlightAware Approximate
Fri 05:18:00 PM 32.2209 123.4824 179° South  Level FlightAware Approximate
Fri 05:19:00 PM 32.0890 123.4833 180° South  Level FlightAware Approximate
Fri 05:20:00 PM 31.9570 123.4833 180° South  Level FlightAware Approximate
Fri 05:21:00 PM 31.8251 123.4833 180° South  Level FlightAware Approximate
Fri 05:22:00 PM 31.6931 123.4833 180° South  Level FlightAware Approximate
Fri 05:23:00 PM 31.5612 123.4833 180° South  Level FlightAware Approximate
Fri 05:24:00 PM 31.4851 123.4251 257° West  Level FlightAware Approximate
Fri 05:25:00 PM 31.4549 123.2745 257° West  Level FlightAware Approximate
Fri 05:26:00 PM 31.4231 123.1244 256° West  Level FlightAware Approximate
Fri 05:27:00 PM 31.3916 122.9743 257° West  Level FlightAware Approximate
Fri 05:28:00 PM 31.3615 122.8238 257° West  Level FlightAware Approximate
Fri 05:29:00 PM 31.3365 122.6722 261° West  Level FlightAware Approximate
Fri 05:30:00 PM 31.3099 122.5209 258° West  Level FlightAware Approximate
Fri 05:31:00 PM 31.2808 122.3703 257° West  Level FlightAware Approximate
Fri 05:32:00 PM 31.2507 122.2200 257° West  Level FlightAware Approximate
Fri 05:33:00 PM 31.2213 122.0704 262° West  Level FlightAware Approximate
Fri 05:34:00 PM 31.1818 121.9241 259° West  Level FlightAware Approximate
Fri 05:35:00 PM 31.1428 121.7924 270° West  Level Estimated
Fri 05:36:00 PM 31.1428 121.7924 157° South  Level Estimated
Fri 05:37:00 PM 31.1428 121.7924 157° South  Level Estimated
Fri 05:38:00 PM 31.1428 121.7924 157° South  Level Estimated
Fri 05:39:00 PM 31.1428 121.7924 157° South  Level Estimated
Fri 05:40:00 PM 31.1428 121.7924 157° South  Level Estimated
Fri 05:41:00 PM 31.1428 121.7924 157° South  Level Estimated
Fri 05:42:00 PM 31.1428 121.7924 157° South  Level Estimated
Fri 05:43:00 PM 31.1428 121.7924 157° South  Level Estimated
Fri 05:44:00 PM 31.1428 121.7924 157° South  Level Estimated
Fri 05:45:00 PM 31.1428 121.7924 157° South  Level Estimated
Fri 05:46:00 PM 31.1428 121.7924 157° South  Level Estimated
Fri 05:47:00 PM 31.1428 121.7924 157° South  Level Estimated
Fri 05:48:00 PM 31.1428 121.7924 157° South  Level Estimated
Fri 05:49:00 PM 31.1428 121.7924 157° South  Level Estimated
Fri 05:50:00 PM 31.1428 121.7924 157° South  Level Estimated
Fri 05:51:00 PM 31.1428 121.7924 157° South  Level Estimated
Fri 05:52:00 PM 31.1428 121.7924 157° South  Level Estimated
Fri 05:53:00 PM 31.1428 121.7924 157° South  Level Estimated
Fri 05:54:00 PM 31.1428 121.7924 157° South  Level Estimated
Fri 05:55:00 PM 31.1428 121.7924 157° South  Level Estimated
Fri 05:56:00 PM 31.1428 121.7924 157° South  Level Estimated
Fri 05:57:00 PM 31.1428 121.7924 157° South  Level Estimated
Fri 05:58:00 PM 31.1428 121.7924 157° South  Level Estimated
Fri 05:59:00 PM 31.1428 121.7924 157° South  Level Estimated

Login

Don't have an account? Register now (free) for customized features, flight alerts, and more!